This is the latest recevied weather packets stored in our database for station/object N4AN. If no packets are shown the sender has not sent any weather packets the latest 10 day(s).
| Time | Temp. | Humidity | Pressure | Rain* | Wind** | Luminosity | Snow |
|---|---|---|---|---|---|---|---|
| 1787493755 | 32.78° C | 69% | 1011.7 hPa | 0 mm | - | - | - |
| 1787493155 | 32.78° C | 69% | 1011.5 hPa | 0 mm | - | - | - |
| 1787492855 | 32.78° C | 69% | 1011.7 hPa | 0 mm | - | - | - |
| 1787492554 | 32.78° C | 69% | 1011.5 hPa | 0 mm | - | - | - |
| 1787492254 | 32.78° C | 69% | 1011.5 hPa | 0 mm | - | - | - |
| 1787491954 | 32.78° C | 69% | 1011.6 hPa | 0 mm | - | - | - |
| 1787491653 | 32.22° C | 70% | 1011.6 hPa | 0 mm | - | - | - |
| 1787491353 | 32.22° C | 69% | 1011.4 hPa | 0 mm | - | - | - |
| 1787491052 | 32.22° C | 70% | 1011.4 hPa | 0 mm | - | - | - |
| 1787490752 | 32.22° C | 70% | 1011.4 hPa | 0 mm | - | - | - |
| 1787490452 | 31.67° C | 71% | 1011.4 hPa | 0 mm | - | - | - |
| 1787490151 | 31.67° C | 71% | 1011.3 hPa | 0 mm | - | - | - |
| 1787489851 | 31.67° C | 70% | 1011.2 hPa | 0 mm | - | - | - |
| 1787489550 | 31.67° C | 71% | 1011.2 hPa | 0 mm | - | - | - |
| 1787489250 | 31.67° C | 72% | 1011.2 hPa | 0 mm | - | - | - |
| 1787488950 | 31.67° C | 70% | 1011.2 hPa | 0 mm | - | - | - |
| 1787488650 | 32.22° C | 71% | 1011.3 hPa | 0 mm | - | - | - |
| 1787488349 | 32.22° C | 71% | 1011.3 hPa | 0 mm | - | - | - |
| 1787488049 | 32.22° C | 70% | 1011.1 hPa | 0 mm | - | - | - |
| 1787487749 | 31.67° C | 73% | 1011.1 hPa | 0 mm | - | - | - |
| 1787487448 | 31.67° C | 72% | 1011.2 hPa | 0 mm | - | - | - |
| 1787487148 | 32.22° C | 71% | 1011.1 hPa | 0 mm | - | - | - |
| 1787486850 | 32.22° C | 72% | 1011.1 hPa | 0 mm | - | - | - |
| 1787486547 | 31.67° C | 73% | 1011.1 hPa | 0 mm | - | - | - |
| 1787486347 | 31.11° C | 75% | 1011.1 hPa | 0 mm | - | - | - |
* Rain latest hour (hover to see other rain measurements)
** Current wind speed in m/s (hover to see current wind gust speed)